Home   Weather   Ahvaz   Past weeks

Flag for Iran Past Weather in Ahvaz, Iran — Yesterday and Last 2 Weeks

Now
64 °F

Sunny.


Feels Like: 64 °F
Forecast: 49 / 76 °F
Wind: 2 mph from North

Location: Ahwaz

Current Time: Feb 26, 2017 at 11:21:19 am

Latest Report: Feb 26, 2017 at 10:30 am


Visibility: 10 mi

Pressure: 30.09 "Hg

Humidity: 37%

Dew Point: 37 °F

Location of AhvazLocation

Past Weather in Ahvaz — Graph

°F

Ahvaz Temperature Yesterday

Maximum temperature yesterday: 77 °F (at 2:30 pm)
Minimum temperature yesterday: 46 °F (at 5:30 am)
Average temperature yesterday: 64 °F

High & Low Weather Summary for the Past Weeks

 TemperatureHumidityPressure
High77 °F (Feb 12, 1:30 pm)100% (Feb 15, 8:00 pm)30.39 "Hg (Feb 15, 8:00 pm)
Low37 °F (Feb 19, 3:30 am)13% (Feb 22, 3:30 pm)29.77 "Hg (Feb 13, 3:30 am)
Average59 °F49%30.05 "Hg
* Reported Feb 11 9:30 am — Feb 26 10:00 am, Ahvaz, Weather by CustomWeather, © 2017

Note: Actual official high and low records may vary slightly from our data, if they occured in-between our weather recording intervals... More about our weather records

Advertising

Ahvaz Weather History for the Previous 24 Hours

Scroll right to see more
 ConditionsComfort  
Time TempWeatherWind HumidityBarometerVisibility
10:00 am
Sun, Feb 26
63 °FSunny.2 mph39%30.09 "Hg10 mi
9:00 am61 °FClear.2 mph42%30.09 "Hg5 mi
8:30 am57 °FClear.2 mph51%30.09 "Hg5 mi
8:00 am55 °FClear.2 mph59%30.07 "Hg4 mi
7:30 am52 °FClear.2 mph67%30.07 "Hg4 mi
7:00 am50 °FClear.2 mph71%30.07 "Hg4 mi
6:30 am50 °FClear.2 mph71%30.07 "Hg4 mi
5:30 am52 °FClear.5 mph67%30.07 "Hg5 mi
4:30 am50 °FClear.2 mph67%30.04 "Hg5 mi
3:30 am52 °FClear.No wind58%30.07 "Hg10 mi
2:30 am55 °FClear.No wind47%30.07 "Hg10 mi
1:30 am55 °FClear.2 mph47%30.07 "Hg10 mi
12:30 am59 °FClear.2 mph39%30.07 "Hg10 mi
12:00 am63 °FClear.2 mph34%30.07 "Hg10 mi
11:30 pm
Sat, Feb 25
63 °FClear.5 mph34%30.09 "Hg10 mi
11:00 pm61 °FClear.2 mph42%30.09 "Hg10 mi
10:30 pm63 °FClear.5 mph42%30.09 "Hg10 mi
10:00 pm61 °FClear.2 mph45%30.12 "Hg10 mi
9:30 pm63 °FClear.2 mph45%30.12 "Hg10 mi
9:00 pm63 °FClear.2 mph45%30.09 "Hg10 mi
8:30 pm61 °FClear.2 mph48%30.09 "Hg10 mi
8:00 pm63 °FClear.2 mph49%30.07 "Hg10 mi
7:30 pm64 °FClear.2 mph43%30.07 "Hg10 mi
7:00 pm68 °FClear.2 mph38%30.07 "Hg5 mi
6:30 pm70 °FClear.2 mph35%30.07 "Hg5 mi
6:00 pm73 °FSunny.5 mph29%30.07 "Hg10 mi
5:30 pm75 °FSunny.5 mph27%30.07 "Hg10 mi
5:00 pm77 °FSunny.7 mph22%30.07 "Hg10 mi
4:30 pm77 °FSunny.5 mph24%30.07 "Hg10 mi
4:00 pm77 °FSunny.5 mph24%30.07 "Hg10 mi
3:30 pm77 °FSunny.5 mph26%30.07 "Hg10 mi
3:00 pm77 °FSunny.5 mph24%30.07 "Hg10 mi
2:30 pm77 °FSunny.5 mph24%30.09 "Hg10 mi
2:00 pm75 °FSunny.5 mph24%30.09 "Hg10 mi
1:30 pm75 °FSunny.5 mph25%30.12 "Hg10 mi
1:00 pm73 °FSunny.5 mph25%30.12 "Hg10 mi
12:00 pm72 °FSunny.5 mph33%30.18 "Hg10 mi
11:30 am70 °FSunny.5 mph35%30.18 "Hg10 mi
11:00 am68 °FClear.2 mph35%30.18 "Hg5 mi
Weather by CustomWeather, © 2017

See weather overviewHow to use our weather pages